RH
18 19 21 26 35 41 44 48 50 48 42 37 36 34 32 35 38 37 37 38 34 29 25 24 25 24 25 28 38 44 41 50 49 38 54 59 57 49 44 43 40 41 43
20 21 24 28 33 37 44 49 52 50 46 37 31 32 32 36 40 36 37 37 33 28 26 26 26 26 24 27 32 39 41 41 46 51 57 82 80 56 46 37 33 34 37
22 23 26 29 34 41 43 49 53 53 51 42 41 42 46 46 45 40 38 37 35 30 28 27 27 27 27 27 28 30 33 34 46 64 57 78 75 78 71 57 38 32 30
25 28 28 34 37 42 47 52 56 56 56 48 46 42 36 33 33 35 37 38 35 32 29 28 28 29 30 30 31 32 32 33 35 48 51 47 46 60 75 70 62 53 37
34 36 36 38 42 46 50 56 60 62 61 56 52 46 42 37 35 39 44 41 38 35 32 30 29 30 31 33 35 35 36 38 37 38 40 43 51 46 50 68 66 58 53
42 43 47 47 49 55 60 65 68 69 68 66 61 55 46 44 43 45 44 42 40 37 34 31 30 30 31 33 36 38 39 40 42 42 42 43 43 43 44 48 59 59 55
56 57 59 61 63 67 72 78 79 78 79 79 75 64 58 57 49 44 40 42 41 38 36 32 30 30 31 33 36 39 41 42 43 45 46 48 49 49 47 46 54 60 61
76 79 77 77 76 79 82 87 87 88 89 88 85 77 70 68 59 53 48 45 43 42 39 35 32 30 31 33 35 38 41 43 45 46 49 52 53 53 52 50 50 58 58
82 86 87 86 93 94 89 91 93 95 97 95 94 88 82 77 71 74 69 62 55 51 46 41 36 33 32 34 36 38 40 42 44 47 50 53 55 55 55 56 56 55 58
96 93 92 92 97 100 100 99 99 99 95 97 99 99 95 94 96 96 88 79 66 58 54 50 44 38 36 36 37 39 41 42 44 46 48 50 52 55 57 58 59 58 57
100 100 100 96 95 97 97 100 100 100 98 100 100 100 100 100 100 100 99 100 86 72 67 62 56 48 42 42 41 42 42 43 44 44 47 49 51 56 60 62 63 61 59
97 95 98 99 99 98 97 97 95 97 99 100 100 100 100 100 100 100 100 99 99 90 82 76 70 60 54 50 47 46 46 47 47 47 50 57 61 62 66 67 66 63 61
97 94 90 90 89 91 95 96 97 98 93 88 88 90 95 99 100 100 100 100 99 95 89 91 89 79 69 60 57 54 58 60 63 62 67 67 76 83 84 81 75 70 69
96 96 92 94 95 95 95 95 95 96 95 95 97 97 97 97 97 97 98 98 97 97 97 97 96 96 96 96 95 95 96 95 92 92 95 97 98 97 97 95 93 92 90
95 96 95 95 95 94 95 95 95 96 95 96 96 96 96 96 96 96 96 97 97 97 97 98 98 97 97 97 97 97 97 97 98 98 97 97 98 97 97 97 98 94 85
95 93 90 92 94 94 94 94 95 95 95 95 95 95 96 96 96 96 96 97 97 97 97 96 96 97 97 97 97 97 96 96 96 96 97 96 96 96 96 96 95 84 80
98 95 94 94 91 91 94 91 89 93 94 96 95 94 94 95 95 96 96 96 96 96 97 97 96 96 96 96 97 97 96 96 96 96 95 96 96 95 95 94 100 100 100
98 95 98 96 97 95 92 92 95 93 90 90 94 96 95 95 95 95 95 95 95 96 95 95 96 96 96 96 96 96 96 96 96 96 95 94 91 89 87 84 79 84 90
70 61 76 60 68 82 81 88 91 91 93 92 91 90 92 94 96 95 95 95 95 95 95 95 95 95 96 96 96 96 95 96 95 91 89 87 82 69 73 99 85 72 62
68 64 67 57 52 47 48 52 68 78 71 86 85 80 87 90 92 94 94 95 94 94 95 94 94 94 94 87 59 91 85 55 38 33 32 35 47 60 84 96 91 90 77
69 73 67 69 67 68 70 62 57 52 50 48 52 64 57 40 38 54 78 89 90 78 61 43 37 28 25 21 24 32 86 75 43 28 21 19 22 30 87 92 95 97 94
64 64 67 67 65 78 80 66 64 67 66 63 60 58 57 60 62 54 47 44 43 39 33 33 32 30 28 27 27 33 68 80 81 55 39 34 30 32 75 93 94 93 93
66 60 64 66 70 80 75 74 68 68 70 70 67 64 62 62 61 63 61 60 53 53 54 52 49 45 44 43 42 44 93 96 98 100 98 98 97 97 98 95 97 96 97
69 68 83 87 80 64 71 67 63 56 59 67 68 66 68 71 82 79 75 73 72 70 73 74 75 73 65 57 51 50 50 54 84 88 89 86 90 99 97 94 95 95 93
78 94 94 78 70 59 54 47 51 59 65 71 72 71 73 78 83 82 84 89 87 92 92 85 83 82 77 72 78 85 84 75 67 71 64 61 58 65 68 70 75 78 78
100 82 72 76 65 62 60 51 55 62 74 85 81 77 94 87 90 92 84 76 100 100 100 98 98 98 98 99 100 100 98 94 98 98 94 94 96 96 91 87 83 77 71
Wind_Speed
31 28 31 32 33 34 35 34 32 31 32 31 30 28 26 23 22 20 20 20 19 19 19 18 17 17 17 18 18 18 17 17 15 17 15 12 9 7 7 7 6 5 5
35 33 33 34 36 37 38 37 33 32 34 33 30 27 25 24 23 22 21 21 21 21 20 19 18 18 19 20 20 19 21 19 20 14 13 11 8 8 6 4 3 3 3
32 34 36 38 37 39 38 38 34 32 34 33 30 28 27 26 27 26 24 23 23 22 22 21 20 20 20 20 20 21 20 21 21 18 9 8 6 13 7 5 4 3 2
20 30 34 38 37 37 35 35 33 32 32 33 33 33 33 32 30 26 25 25 25 24 24 23 23 22 21 21 20 21 21 20 21 21 17 10 10 10 9 8 6 4 3
7 16 26 31 31 31 32 32 31 31 32 34 34 33 32 29 26 26 26 26 26 26 26 25 25 24 23 23 22 22 22 21 22 21 20 17 15 12 9 11 11 8 6
6 6 12 19 23 26 27 30 31 31 32 32 32 32 31 29 28 28 28 28 28 28 28 27 27 26 25 25 24 24 23 23 22 22 20 19 20 19 15 13 14 9 8
13 9 5 10 16 21 23 26 27 28 29 30 30 30 29 28 30 29 28 29 30 31 30 29 29 28 27 26 26 25 25 24 24 22 22 20 19 16 17 14 17 13 12
22 21 12 3 7 12 15 20 23 25 27 27 28 28 27 28 30 28 27 28 29 29 29 29 29 29 28 28 28 27 26 26 25 24 23 22 21 19 17 18 19 15 14
22 20 20 20 8 4 11 16 19 22 24 25 26 26 27 27 29 27 26 27 27 28 29 29 30 30 29 29 28 28 28 27 26 26 25 23 22 20 19 18 18 19 17
26 24 21 20 17 9 7 11 11 15 19 22 24 24 26 27 26 27 29 28 27 28 29 30 31 31 30 30 29 28 28 27 27 26 25 24 23 21 21 20 19 20 19
32 26 22 20 17 14 11 6 4 9 15 16 19 20 23 26 25 25 26 28 28 29 29 30 30 30 30 29 29 28 27 26 26 25 25 25 24 22 21 20 19 19 18
32 28 25 22 18 16 14 13 8 4 4 8 11 14 19 23 25 26 24 25 27 28 27 27 28 29 29 29 28 28 27 25 24 24 24 23 23 22 21 19 18 18 17
30 29 28 26 23 21 19 17 15 11 6 3 6 11 15 18 20 21 23 25 26 27 27 27 28 28 28 27 27 25 24 23 24 24 23 23 22 22 22 21 20 19 18
30 30 29 28 25 22 20 17 15 15 14 12 12 12 13 15 16 19 20 22 24 26 27 27 28 29 29 29 30 31 29 26 26 29 29 27 26 24 23 22 21 20 19
30 30 29 28 26 24 21 19 17 14 11 9 8 6 6 9 12 15 15 16 17 19 20 22 24 25 25 25 24 25 25 26 26 26 25 24 23 22 21 20 19 18 18
27 26 25 25 25 24 23 20 18 16 14 11 8 5 4 3 5 8 10 12 15 17 18 18 19 19 20 19 19 19 19 19 19 18 18 18 17 15 15 15 16 18 19
26 27 25 24 22 22 20 19 17 16 14 12 10 9 9 8 7 6 7 8 10 11 13 14 16 16 16 14 12 11 12 14 15 14 13 13 13 12 15 16 16 15 15
27 26 24 24 21 19 18 16 15 14 12 12 13 12 10 10 10 10 10 10 11 11 13 13 13 15 15 15 16 17 16 16 16 17 17 17 18 18 18 19 20 21 21
25 24 21 22 21 19 19 17 16 15 13 13 12 13 12 12 12 11 11 11 12 12 13 14 13 13 14 13 14 16 19 21 21 21 22 21 21 19 18 19 21 22 22
23 24 23 23 22 21 21 19 18 18 18 18 16 15 15 15 14 13 13 14 14 14 14 13 14 14 14 14 15 15 19 20 19 19 20 20 20 20 19 19 19 21 21
26 24 23 23 23 22 19 19 20 19 18 19 20 19 18 19 17 16 17 17 16 16 16 18 18 18 18 18 18 18 17 20 19 18 18 19 19 20 18 18 21 23 21
28 27 26 25 24 20 20 22 21 21 23 24 21 21 20 20 19 18 18 18 18 19 19 20 22 20 19 19 20 19 18 17 20 21 20 20 19 19 17 17 18 18 18
29 28 25 26 23 22 25 23 24 25 25 25 26 25 24 23 21 20 21 21 20 20 21 21 23 22 19 19 17 17 15 16 18 21 21 19 17 17 17 18 18 19 23
29 28 27 27 31 29 25 27 29 29 28 27 27 26 26 24 21 22 23 23 23 23 22 22 22 23 22 22 21 20 20 20 20 21 21 22 23 22 21 21 23 25 28
30 26 27 33 30 31 32 31 31 29 27 27 27 27 27 26 25 23 22 21 20 19 21 22 22 21 22 20 19 18 18 18 17 15 15 15 16 16 17 18 20 21 23
26 33 33 32 34 33 32 30 28 26 25 25 26 26 25 26 26 27 28 24 22 22 23 24 25 27 26 22 20 20 20 20 20 23 25 23 18 17 18 20 22 22 23
Wind_Direction
251 240 234 230 225 228 228 227 223 217 214 210 210 212 214 213 213 211 208 203 201 196 192 192 190 187 181 178 175 168 168 157 155 147 132 123 118 121 119 121 122 122 124
243 233 226 224 225 225 226 226 224 220 216 216 217 218 216 216 218 216 212 206 205 202 199 200 198 195 191 184 183 182 175 175 168 162 151 144 141 138 128 127 127 140 162
240 228 221 219 220 220 225 226 225 222 219 218 215 213 213 215 215 216 214 211 210 208 207 206 205 204 200 197 191 189 191 189 184 185 174 167 176 166 152 149 146 145 160
239 226 213 211 216 219 223 227 226 223 222 220 217 218 219 218 222 223 219 214 212 212 212 212 212 210 208 206 205 201 198 198 199 193 200 196 181 176 171 185 183 186 202
188 197 208 211 212 219 225 228 227 226 225 222 221 222 223 226 230 222 220 218 215 215 217 217 217 216 213 211 212 210 207 204 205 204 203 196 191 191 181 179 198 200 202
135 153 198 209 214 218 224 227 226 228 227 225 224 225 227 226 226 224 222 222 220 219 220 220 220 220 219 217 215 214 214 211 209 209 208 208 199 198 196 189 190 203 215
74 91 145 203 217 221 223 228 231 232 230 229 229 229 230 231 234 233 229 225 224 223 224 224 224 224 223 221 219 218 218 217 216 215 213 210 210 207 201 198 188 194 207
58 61 60 91 230 234 235 233 234 235 235 234 235 235 235 235 237 236 234 234 234 232 229 228 226 226 226 224 223 221 220 219 218 219 218 218 217 215 213 209 204 195 205
45 47 52 58 96 213 240 240 241 238 241 242 241 240 239 234 236 241 239 240 237 231 229 229 229 229 228 226 225 224 223 221 220 220 219 220 220 220 219 218 215 212 202
41 39 41 46 59 86 141 192 222 245 253 249 247 245 240 237 238 241 244 243 239 233 231 230 230 229 228 228 226 225 223 223 222 222 223 222 223 223 225 225 224 221 219
33 28 26 29 31 40 57 74 169 210 219 222 228 236 238 236 239 243 246 247 243 238 234 234 232 229 227 225 224 223 224 225 226 223 226 227 227 227 228 227 227 227 223
32 29 26 23 18 14 14 18 28 60 171 219 226 225 232 237 237 237 240 242 243 239 237 235 232 229 225 224 224 224 223 222 228 231 228 228 227 226 227 228 229 229 226
31 32 31 29 23 15 8 3 356 345 337 312 246 243 243 241 240 236 230 228 230 230 226 224 224 222 221 220 221 221 221 225 227 231 230 231 231 231 232 229 223 218 218
25 28 30 28 26 24 20 12 2 359 356 335 305 284 270 261 255 249 240 230 229 235 241 235 230 229 231 231 228 234 234 227 229 236 238 235 231 227 222 219 220 222 223
17 18 19 19 19 18 16 12 11 7 2 353 345 339 311 284 268 259 255 252 249 247 247 244 240 240 240 240 239 238 238 236 234 231 228 226 223 221 222 221 220 224 230
9 6 8 9 10 9 7 5 2 360 354 350 345 339 302 272 250 237 237 236 236 233 229 229 234 233 230 229 230 229 227 223 221 222 222 222 220 222 228 230 232 231 232
357 356 357 358 354 356 355 353 352 347 345 338 335 329 321 313 294 270 240 224 218 215 221 220 217 218 215 211 206 227 231 226 224 226 235 242 241 238 242 239 232 234 236
345 347 345 347 346 343 340 340 338 336 333 330 330 323 319 306 293 286 278 267 259 246 239 231 226 223 224 218 214 209 221 226 233 239 244 247 248 243 245 252 252 245 237
341 341 340 342 342 342 339 339 338 336 334 328 324 319 312 303 294 291 284 276 267 259 253 250 249 252 250 248 246 246 249 252 252 250 249 249 249 250 246 250 255 261 256
337 338 335 335 335 336 332 332 337 341 338 334 333 332 328 320 315 314 312 306 303 300 299 291 285 282 279 272 260 255 256 258 256 252 249 249 250 253 250 248 254 259 263
334 334 330 330 332 333 331 332 331 330 326 318 316 314 313 309 307 305 303 298 292 284 280 276 269 264 262 262 260 257 254 262 263 258 254 249 246 245 246 248 255 260 269
330 329 327 326 328 332 330 326 323 319 315 313 310 308 305 302 300 296 292 290 287 282 275 274 273 268 265 262 262 259 256 258 266 268 265 262 255 249 249 251 248 254 259
325 326 326 323 323 322 318 313 310 310 309 306 306 305 304 301 298 294 289 287 284 283 283 278 278 277 275 271 262 261 260 258 253 260 268 271 271 266 262 255 250 251 249
323 325 323 320 318 319 314 310 310 309 306 303 302 301 301 303 299 293 289 287 285 283 282 281 279 281 280 278 275 271 265 257 252 247 250 250 251 257 260 259 256 253 254
321 317 311 313 309 309 307 308 310 309 306 301 299 298 299 300 300 295 292 292 289 286 287 287 289 290 288 290 288 276 279 274 275 278 272 262 255 254 251 250 254 258 259
309 308 312 311 310 312 311 310 309 307 305 303 301 300 298 294 292 293 291 283 278 276 272 270 274 284 286 282 272 268 266 263 260 260 263 261 254 255 264 267 273 272 269